Flag for U.S.A. Weather past 2 weeks in New Bedford, Massachusetts, U.S.A.

Now
8 °F

Sunny.


Feels Like: 0 °F
Forecast: 10 / 24 °F
Wind: 5 mph from North

Location: New Bedford Regional Airport

Current Time: Mar 6, 2015 at 7:47:51 AM

Latest Report: Mar 6, 2015 at 6:53 AM


Visibility: 10 mi

Pressure: 30.46 "Hg

Humidity: 66%

Dew point: -1 °F

Location of New BedfordLocation

Historic Weather in New Bedford — Graph

°F

New Bedford temperature yesterday

Maximum temperature yesterday: 36 °F (at 12:53 AM)
Minimum temperature yesterday: 20 °F (at 10:53 PM)
Average temperature yesterday: 28 °F

Past Weeks' High & Low Weather Summary

 TemperatureHumidityPressure
High42 °F (Mar 4, 1:53 AM)100% (Feb 22, 7:53 PM)30.75 "Hg (Feb 22, 7:53 PM)
Low-9 °F (Feb 21, 3:53 AM)30% (Feb 23, 12:53 PM)29.56 "Hg (Feb 19, 1:53 PM)
Average22 °F70%30.15 "Hg
* Reported Feb 19 6:53 AM — Mar 6 6:53 AM, New Bedford, Weather by CustomWeather, © 2015

Note: Actual official high and low records may vary slightly from our data, if they occured in-between our weather recording intervals... More about our weather records

Advertising

New Bedford weather history for previous 24 hours

 ConditionsComfort  
Time TempWeatherWind HumidityBarometerVisibility
6:53 AM
Fri, Mar 6
8 °FSunny.5 mph66%30.46 "Hg10 mi
5:53 AM6 °FClear.3 mph73%30.44 "Hg10 mi
4:53 AM9 °FClear.5 mph70%30.41 "Hg10 mi
3:53 AM11 °FClear.7 mph67%30.38 "Hg10 mi
2:53 AM13 °FClear.6 mph70%30.35 "Hg10 mi
1:53 AM15 °FClear.6 mph70%30.33 "Hg10 mi
12:53 AM18 °FClear.5 mph71%30.30 "Hg10 mi
11:53 PM
Thu, Mar 5
20 °FPassing clouds.5 mph71%30.28 "Hg10 mi
10:53 PM20 °FPassing clouds.No wind74%30.26 "Hg10 mi
9:53 PM21 °FOvercast.5 mph71%30.24 "Hg10 mi
8:53 PM23 °FOvercast.3 mph78%30.21 "Hg10 mi
7:53 PM22 °FMostly cloudy.No wind85%30.18 "Hg10 mi
6:53 PM22 °FLight snow. Ice fog.7 mph92%30.18 "Hg3 mi
5:53 PM23 °FSnow. Ice fog.No wind92%30.14 "Hg1 mi
5:03 PM24 °FLight snow. Ice fog.3 mph84%30.12 "Hg1 mi
3:53 PM24 °FLight snow. Ice fog.6 mph88%30.11 "Hg1 mi
2:58 PM25 °FSnow. Ice fog.6 mph92%30.10 "Hg1 mi
1:53 PM25 °FSnow. Ice fog.7 mph88%30.09 "Hg1 mi
12:53 PM26 °FSnow. Ice fog.6 mph88%30.08 "Hg1 mi
11:53 AM26 °FSnow. Ice fog.8 mph92%30.05 "Hg1 mi
11:04 AM27 °FSnow. Ice fog.10 mph92%30.07 "Hg1 mi
10:53 AM28 °FLight snow. Ice fog.8 mph89%30.07 "Hg1 mi
9:53 AM30 °FLight snow. Ice fog.14 mph92%30.06 "Hg1 mi
8:53 AM31 °FLight snow. Ice fog.3 mph96%30.02 "Hg1 mi
7:53 AM32 °FLight snow. Ice fog.No wind96%30.00 "Hg1 mi
Weather by CustomWeather, © 2015

See weather overviewHow to use our weather pages